Miscellaneous Local Product
Issued by NWS Hastings, NE

Home | Current Version | Previous Version | Graphics & Text | Print | Product List | Glossary On
Versions: 1 2 3 4 5 6 7 8 9 10 11 12 13 14 15 16 17 18 19 20 21 22 23 24 25 26 27 28 29 30 31 32 33 34 35 36 37 38 39 40 41 42 43 44 45 46 47 48 49 50
191
AXUS43 KGID 120902
MISGRI

GID CWA HOURLY WEATHER ROUNDUP
NATIONAL WEATHER SERVICE HASTINGS NE
300 AM CST FRI FEB 12 2016

NOTE: "FAIR" INDICATES FEW OR NO CLOUDS BELOW 12,000 FEET WITH NO
SIGNIFICANT WEATHER AND/OR OBSTRUCTIONS TO VISIBILITY.

...SOUTH CENTRAL NEBRASKA...

CITY           SKY/WX    TMP DP  RH WIND       PRES   REMARKS
GRAND ISLAND   CLOUDY    27  24  89 N13       30.27R WCI  16
HASTINGS       CLOUDY    30  25  81 N16       30.23R WCI  19
KEARNEY        CLOUDY    30  27  86 N13       30.24R WCI  20
ORD            CLOUDY    29  24  82 N10       30.25R WCI  20
YORK           CLOUDY    28  27  93 N17G24    30.24S WCI  16
AURORA         CLOUDY    28  26  91 N12       30.25S WCI  18
LEXINGTON      CLOUDY    32  28  88 NW7       30.26R WCI  25
HOLDREGE       CLOUDY    28  26  93 N7        30.23R WCI  20
HEBRON         CLEAR     28  26  92 N10       30.25R WCI  18

...NEBRASKA PANHANDLE...

CITY           SKY/WX    TMP DP  RH WIND       PRES   REMARKS
CHADRON        CLEAR     24  22  91 CALM      30.26R
ALLIANCE       CLOUDY    23  21  92 W7        30.23S WCI  15
SCOTTSBLUFF    CLOUDY    30  26  85 NW6       30.25R WCI  24
SIDNEY         CLOUDY    32  27  81 W13       30.25R WCI  22

...WESTERN AND NORTH CENTRAL NEBRASKA...

CITY           SKY/WX    TMP DP  RH WIND       PRES   REMARKS
VALENTINE      CLOUDY    31  27  85 N8        30.26R WCI  23
AINSWORTH      CLOUDY    30  28  90 NW10      30.25R WCI  21
ONEILL         CLOUDY    26  24  93 NW6       30.27R WCI  20
BROKEN BOW     CLOUDY    31  28  89 N9        30.23R WCI  23
IMPERIAL       CLEAR     28  24  85 W7        30.26R WCI  21
NORTH PLATTE   CLOUDY    24  22  91 NW6       30.26R WCI  17
MCCOOK         CLEAR     30  26  85 NW5       30.26R WCI  25

...EASTERN NEBRASKA...

CITY           SKY/WX    TMP DP  RH WIND       PRES   REMARKS
NORFOLK        CLOUDY    24  21  88 N17       30.27R WCI  11
SO SIOUX CITY  CLOUDY    15  11  83 W7        30.30R FOG     WCI   5
TEKAMAH        PTCLDY    19  16  88 N8        30.29R WCI   9
COLUMBUS       CLOUDY    27  16  63 NW14      30.27S WCI  15
ALBION         CLOUDY    27  24  87 N9        30.26S WCI  18
OMAHA EPPLEY   CLOUDY    24  20  84 N9        30.27R WCI  14
OFFUTT AFB     CLOUDY    26  21  82 NW5       30.25R WCI  20
MILLARD        CLOUDY    26  21  80 NW6       30.26R WCI  20
LINCOLN        CLOUDY    29  25  85 N9        30.27R FOG     WCI  20
NEBRASKA CITY  CLOUDY    29  25  85 N7        30.25R WCI  22
BEATRICE       CLOUDY    29  27  91 N9        30.24R WCI  21
FALLS CITY     CLOUDY    28  22  78 NW3       30.23R

...NORTHERN KANSAS...

CITY           SKY/WX    TMP DP  RH WIND       PRES   REMARKS
GOODLAND       CLOUDY    29  24  82 W7        30.26R WCI  22
HILL CITY      NOT AVBL
NORTON         SUNNY     28  23  80 NW8       30.25R WCI  20
SMITH CENTER   CLEAR     30  28  93 N8        30.27R WCI  23
BELOIT         CLEAR     30  28  93 NW14      30.24S WCI  20
RUSSELL        CLOUDY    33  30  88 N12       30.22R WCI  24
CONCORDIA      CLOUDY    30  26  85 NW8       30.24R WCI  22
SALINA         CLOUDY    31  25  78 NW9       30.23R WCI  23
TOPEKA         CLEAR     29  21  72 W3        30.21R



USA.gov is the U.S. government's official web portal to all federal, state and local government web resources and services.